NOAA 16 DEB

Satellite information

Favourite Embed

Satellite Type and Status

DEBRISIN ORBIT

Key statistics

Satellite NOAA 16 DEB at a glance.

Uptime

9214

Days in orbit

Revolutions

≈ 14.2

Per day

Orbit

SSO

Sun Synchronous Orbit

Inclination

98.9

Latest

Satellite identification and parameters

Extended collection of information and parameters for NOAA 16 DEB.

Object identification

Identified? True

Debris? True

Object name: NOAA 16 DEB

International designator: 2000-055FU

Object number (NORAD): 41268

Object ID (CCSDS): 41268

Country: UNITED STATES OF AMERICA (US)

Current information (Y/N): Y

RCS size: SMALL

Orbital parameters

Period: 101.236 minutes

Inclination: 98.8618 deg

SMA: 7195.309 km

Apoapsis: 835.42 km

Periapsis: 798.929 km

RAAN: 73.8303 deg

Eccentricy: 0.00253575

Argument of periapsis: 88.7565 deg

Mean anomaly: 271.6517 deg

Mean motion: 14.22422288 rev/day

Mean motion (dot): 0.00006694 rev/day2

B* drag term: 0.0030128834 1/REarth

Two-line elements (TLE)

Creation date: Dec. 11, 2025, 10:54 a.m.

Reference frame: TEME

Reference center: EARTH

Epoch: Dec. 11, 2025, 4:40 a.m. UTC

TLE line 0: 0 NOAA 16 DEB

TLE line 1: 1 41268U 00055FU 25345.19483506 .00006694 00000-0 30129-2 0 9998

TLE line 2: 2 41268 98.8618 73.8303 0025357 88.7565 271.6517 14.22422288513089

Live tracking on map

Real-time ground track for satellite NOAA 16 DEB.

In-orbit conjunctions

A list of the most updated potential collisions computed for object NOAA 16 DEB.

Target Orbit TCA Probability of collision Miss distance Type
SL-16 R/B LEO 2025-06-16 16:11:03 0.0002873054 125.0 (m) ROCKET BODY
CZ-6A R/B LEO 2025-06-04 22:02:31 0.0001237709 57.0 (m) ROCKET BODY

Associated space launch

The NOAA K, L and M POES satellites begin the fifth generation of improved environmental monitoring in support of NOAA missions. The instrument payload has significant improvements and additions/deletions. The instrument changes have effected the spacecraft subsystems and data formats.

NOAA 16 DEB was lifted into orbit during the mission ‘Titan II SLV | NOAA 16’, on board a Titan II SLV space rocket.

The launch took place on Sept. 21, 2000, 10:22 a.m. from Space Launch Complex 4W.

For more information about the launch, click the button.

Launch to space Titan II SLV | NOAA 16
Titan II SLV | NOAA 16

Agency: N/A

Status: Launch Successful

Launch date: Sept. 21, 2000, 10:22 a.m. UTC

Rocket: Titan II SLV

Launch pad: Space Launch Complex 4W

Location: Vandenberg SFB, CA, USA

...

Latest news about this satellite

There are no fresh news available about this satellite. Check back as we update our databases every day.


Newsletter sign-up

Weekly statistics, charts and insights to help you stay on top of the space industry.